GPS BIII-6 (PRN 28)

Last updated on Thu Aug 20 2026 00:03:18 GMT+0000 (Coordinated Universal Time)

1 55268U 23009A 26231.52104380 -.00000021 00000+0 00000+0 0 9999 2 55268 55.1262 146.0290 0005919 326.4688 211.9641 2.00567390 26512
UTC large
Height (km)
Speed (km/s)
/
Latitude / Longitude
Inclination (degrees)
Orbital Period (minutes)
Azimuth
Elevation
Range (km)
Doppler Factor

Next 0 passes for location: London (51.5072 / 0.1276)

No passes found over London.
GPS BIII-6 (PRN 28)